This is the latest recevied weather packets stored in our database for station/object SV9TNF-51. If no packets are shown the sender has not sent any weather packets the latest 10 day(s).
| Time | Temp. | Humidity | Pressure | Rain* | Wind** | Luminosity | Snow |
|---|---|---|---|---|---|---|---|
| 1788418747 | 30.56° C | 43% | 1010.5 hPa | 0 mm | 4.92 m/s, 149° | - | - |
| 1788418447 | 30.56° C | 44% | 1010.5 hPa | 0 mm | 4.92 m/s, 162° | - | - |
| 1788418159 | 30° C | 43% | 1010.5 hPa | 0 mm | 5.81 m/s, 230° | - | - |
| 1788417846 | 29.44° C | 44% | 1010.5 hPa | 0 mm | 8.94 m/s, 171° | - | - |
| 1788417547 | 29.44° C | 44% | 1010.5 hPa | 0 mm | 7.15 m/s, 152° | - | - |
| 1788417246 | 29.44° C | 46% | 1010.5 hPa | 0 mm | 6.26 m/s, 97° | - | - |
| 1788416947 | 29.44° C | 46% | 1010.5 hPa | 0 mm | 4.47 m/s, 25° | - | - |
| 1788416646 | 29.44° C | 44% | 1010.5 hPa | 0 mm | 4.47 m/s, 344° | - | - |
| 1788416346 | 29.44° C | 41% | 1010.5 hPa | 0 mm | 7.15 m/s, 335° | - | - |
| 1788416046 | 29.44° C | 41% | 1010.5 hPa | 0 mm | 3.13 m/s, 130° | - | - |
| 1788415746 | 29.44° C | 41% | 1010.5 hPa | 0 mm | 4.02 m/s, 331° | - | - |
| 1788415446 | 29.44° C | 39% | 1010.5 hPa | 0 mm | 5.81 m/s, 236° | - | - |
| 1788415146 | 29.44° C | 41% | 1009.8 hPa | 0 mm | 3.13 m/s, 182° | - | - |
| 1788414846 | 28.33° C | 42% | 1009.8 hPa | 0 mm | 2.68 m/s, 29° | - | - |
| 1788414558 | 28.33° C | 44% | 1009.8 hPa | 0 mm | 3.58 m/s, 144° | - | - |
| 1788414245 | 27.22° C | 48% | 1009.8 hPa | 0 mm | 5.81 m/s, 215° | - | - |
| 1788413945 | 26.67° C | 58% | 1009.8 hPa | 0 mm | 4.92 m/s, 136° | - | - |
| 1788413645 | 26.11° C | 61% | 1010.5 hPa | 0 mm | 4.02 m/s, 159° | - | - |
| 1788413345 | 25.56° C | 60% | 1010.5 hPa | 0 mm | 5.81 m/s, 204° | - | - |
| 1788413045 | 25.56° C | 61% | 1010.5 hPa | 0 mm | 4.92 m/s, 228° | - | - |
| 1788412745 | 25.56° C | 59% | 1010.5 hPa | 0 mm | 5.81 m/s, 247° | - | - |
| 1788412445 | 25° C | 56% | 1010.5 hPa | 0 mm | 4.47 m/s, 333° | - | - |
| 1788412145 | 24.44° C | 54% | 1010.5 hPa | 0 mm | 4.02 m/s, 323° | - | - |
| 1788411845 | 24.44° C | 62% | 1010.5 hPa | 0 mm | 2.68 m/s, 151° | - | - |
| 1788411545 | 25° C | 69% | 1010.5 hPa | 0 mm | 2.68 m/s, 146° | - | - |
* Rain latest hour (hover to see other rain measurements)
** Current wind speed in m/s (hover to see current wind gust speed)